星链-31327 (STARLINK-31327 )

导读

STARLINK-31327是美国SpaceX星链计划的卫星,于2024年3月4日发射,属于低轨卫星星座组网卫星,主要为全球提供高速互联网服务,尤其覆盖偏远地区和网络基础设施薄弱区域。该卫星延续星链设计,具备自动脱轨离轨能力,可降低空间碎片风险,支撑星链系统持续扩容与服务升级。

基本信息
目录编号:
59160
目录名称:
STARLINK-31327
国际标识:
2024-044J
轨道中心:
EARTH
卫星名称:
星链-31327
卫星全名:
星链-31327 (STARLINK-31327 )
卫星状态:
在轨 (已飞行836 天)
发射日期:
2024-03-04 UTC
国别 :
美国 (US)
星等 :
--
轨道信息
数据来源 国际轨道数据
星历时间: 2026-06-16T21:18:00+0800
1天前
查看轨道信息
半长轴: 6861.206km
偏心率: 0.0001026
轨道倾角: 42.999°
近地点辐角 246.508°
升交点赤经 268.865°
平近点角 113.567°
近地点: 482.365km
远地点: 483.773km
周期: 94.267分钟
每日圈数: 15.275734
详细信息
固有亮度:
5
最大亮度:
0.3
卫星平台:
Starlink v2.0 mini
覆盖范围:
全球
运营商:
太空探索技术公司
运营商所在国:
美国
制造商(研发单位):
太空探索技术公司
制造商所在国:
美国
使用方式:
暂无
卫星简介
星链(Starlink)计划是由太空探索技术公司(SpaceX)提出的一个巨型低轨卫星互联网星座项目,计划在2019年至2024年间在太空搭建由约1.2万颗卫星组成的“星链”网络,其中1584颗将部署在地球上空550千米处的近地轨道,并从2020年开始工作。该卫星仍在工作。
2D轨道图
3D轨道图
轨道高度分析图
轨道倾角分析图
轨道综合分析图
查看轨道综合分析图